Regional Weather Roundup
Issued by NWS

Home | Current Version | Previous Version | Text Only | Print | Product List | Glossary On
Versions: 1 2 3 4 5 6 7 8 9 10 11 12 13 14 15 16 17 18 19 20 21 22 23 24 25 26 27 28 29 30 31 32 33 34 35 36 37 38 39 40 41 42 43 44 45 46 47 48 49 50
000
ASUS43 KBIS 270620
RWRND

NORTH DAKOTA REGIONAL WEATHER ROUNDUP
NATIONAL WEATHER SERVICE BISMARCK ND
1200 AM CST TUE JAN 27 2015

NOTE: "FAIR" INDICATES FEW OR NO CLOUDS BELOW 12,000 FEET WITH NO
SIGNIFICANT WEATHER AND/OR OBSTRUCTIONS TO VISIBILITY.


NDZ001>003-009>011-017-270700-
NORTHWEST NORTH DAKOTA

CITY           SKY/WX    TMP DP  RH WIND       PRES   REMARKS
WILLISTON      PTCLDY    29  27  92 CALM      29.88S
6HR MIN TEMP:  28; 6HR MAX TEMP:  43;

MINOT          FAIR      30  27  88 CALM      29.91R
MINOT AFB      CLEAR     26  26 100 SE6       29.90S WCI  20
$$

NDZ018>021-031>035-040>046-270700-
SOUTHWEST NORTH DAKOTA

CITY           SKY/WX    TMP DP  RH WIND       PRES   REMARKS
BISMARCK       PTCLDY    31  29  92 CALM      29.97S
6HR MIN TEMP:  29; 6HR MAX TEMP:  38;

DICKINSON      CLEAR     35  30  82 S6        29.88F
GARRISON         N/A     32  29  88 S6        29.92S
6HR MIN TEMP:  30; 6HR MAX TEMP:  38;

HETTINGER ARPT CLEAR     31  27  85 SE3       29.94S
$$

NDZ004>008-012>016-024-026-027-054-270700-
NORTHEAST NORTH DAKOTA

CITY           SKY/WX    TMP DP  RH WIND       PRES   REMARKS
GRAND FORKS    CLOUDY    25  24  96 SE6       30.03R FOG     WCI  18
GRND FRKS AFB  CLEAR     21  19  93 SE5       30.02S WCI  14
DEVILS LAKE    CLEAR     25  21  86 SE3       29.97S
$$

NDZ022-023-025-028>030-036>039-047>053-270700-
SOUTHEAST NORTH DAKOTA

CITY           SKY/WX    TMP DP  RH WIND       PRES   REMARKS
FARGO          MOCLDY    26  23  88 NE6       30.03R WCI  19
6HR MIN TEMP:  25; 6HR MAX TEMP:  31;

JAMESTOWN      CLEAR     26  25  96 S3        29.98S
$$




USA.gov is the U.S. government's official web portal to all federal, state and local government web resources and services.